Regional Weather Roundup
Issued by NWS

Home | Current Version | Previous Version | Text Only | Print | Product List | Glossary Off
Versions: 1 2 3 4 5 6 7 8 9 10 11 12 13 14 15 16 17 18 19 20 21 22 23 24 25 26 27 28 29 30 31 32 33 34 35 36 37 38 39 40 41 42 43 44 45 46 47 48 49 50

000
ASUS43 KFSD 211810
RWRSD

WEATHER ROUNDUP FOR SOUTH DAKOTA
NATIONAL WEATHER SERVICE SIOUX FALLS SD
1200 PM CST SUN DEC 21 2014

NOTE: "FAIR" INDICATES FEW OR NO CLOUDS BELOW 12,000 FEET WITH NO
SIGNIFICANT WEATHER AND/OR OBSTRUCTIONS TO VISIBILITY.


SDZ001>005-009-010-012>017-211900-
NORTHWEST AND NORTH CENTRAL SOUTH DAKOTA

CITY           SKY/WX    TMP DP  RH WIND       PRES   REMARKS
BUFFALO          N/A     39  29  67 S5        29.36F
FAITH            N/A     35  28  75 SW5       29.45F
MOBRIDGE       SUNNY     37  28  70 SE13      29.48F
$$

SDZ012>016-024>037-041>051-057-063-072>074-211900-
SOUTHWEST AND SOUTH CENTRAL SOUTH DAKOTA

CITY           SKY/WX    TMP DP  RH WIND       PRES   REMARKS
RAPID CTY ARPT PTSUNNY   38  27  64 SW3       29.44F
PIERRE         SUNNY     30  26  85 SE9       29.50F WCI  22
CUSTER         CLOUDY    37  26  64 W13G21    29.44F
ELLSWORTH AFB  CLOUDY    41  26  54 S5        29.43F
PHILIP         MOSUNNY   42  30  62 E3        29.46F
PINE RIDGE     PTSUNNY   42  28  57 S15       29.48F
SPEARFISH      FAIR      41  28  60 CALM      29.44F
WINNER         FAIR      41  28  60 SW17      29.52F
$$

SDZ004>011-016>023-039-040-211900-
NORTHEAST SOUTH DAKOTA

CITY           SKY/WX    TMP DP  RH WIND       PRES   REMARKS
ABERDEEN       CLOUDY    32  30  92 S15       29.60F FOG     WCI  22
WATERTOWN      CLOUDY    31  31 100 S15       29.63F FOG     WCI  20
$$

SDZ017-020-022-023-036>040-048>070-211900-
SOUTHEAST SOUTH DAKOTA

CITY           SKY/WX    TMP DP  RH WIND       PRES   REMARKS
SIOUX FALLS    CLOUDY    34  33  96 S15       29.68F FOG     WCI  24
HURON          CLOUDY    31  30  96 S13       29.61F FOG     WCI  21
CHAMBERLAIN    SUNNY     32  27  81 SE9       29.55F WCI  24
MITCHELL       MOSUNNY   34  31  88 SE15      29.62F WCI  24
YANKTON        MOSUNNY   34  30  86 SE8       29.70F WCI  27
$$

ABBREVIATIONS USED IN REMARKS
   TC - TEMPERATURE IN CELSIUS
  WCI - WIND CHILL INDEX
   HX - HEAT INDEX
  VSB - VISIBILITY




USA.gov is the U.S. government's official web portal to all federal, state and local government web resources and services.